Location: Woodhurst
(52.3667°N, 0.0667°W)
Time: 22:42:36
(UTC+00:00)

Cosmos 783 Rocket - Pass Details

Date: 19 May 2025
Orbit: 753 x 777 km, 74.1° (Epoch: 12 June)

Event Time Altitude Azimuth Distance (km) Brightness Sun altitude
Exits shadow 22:47:03 18° 203° (SSW) 1,791 6.0 -16.1°
Maximum altitude 22:50:57 89° 119° (ESE) 767 4.4 -16.2°
Drops below altitude 10° 22:56:12 10° 26° (NNE) 2,308 7.7 -16.5°
Sets 22:58:35 0° 26° (NNE) 3,242 8.6 -16.5°
